This is the latest recevied weather packets stored in our database for station/object K4CRS-13. If no packets are shown the sender has not sent any weather packets the latest 10 day(s).
| Time | Temp. | Humidity | Pressure | Rain* | Wind** | Luminosity | Snow |
|---|---|---|---|---|---|---|---|
| 1777388450 | 20° C | 98% | 1053.5 hPa | 0 mm | - | 158 W/m² | - |
| 1777388143 | 20° C | 98% | 1053.5 hPa | 0 mm | - | 107 W/m² | - |
| 1777387839 | 19.44° C | 98% | 1053.2 hPa | 0 mm | - | 325 W/m² | - |
| 1777387537 | 19.44° C | 98% | 1053.6 hPa | 0 mm | - | 95 W/m² | - |
| 1777387232 | 19.44° C | 98% | 1053.6 hPa | 0 mm | - | 64 W/m² | - |
| 1777386927 | 19.44° C | 98% | 1053.4 hPa | 0 mm | - | 72 W/m² | - |
| 1777386625 | 19.44° C | 98% | 1053.5 hPa | 0 mm | - | 60 W/m² | - |
| 1777386322 | 19.44° C | 98% | 1053.8 hPa | 0 mm | - | 24 W/m² | - |
| 1777386019 | 19.44° C | 98% | 1053.6 hPa | 0 mm | - | 39 W/m² | - |
| 1777385716 | 20° C | 98% | 1053.7 hPa | 0 mm | - | 53 W/m² | - |
| 1777385413 | 20° C | 98% | 1053.7 hPa | 0 mm | - | 31 W/m² | - |
| 1777385109 | 20° C | 98% | 1053.6 hPa | 0 mm | - | 68 W/m² | - |
| 1777384805 | 20° C | 98% | 1053.3 hPa | 0 mm | - | 259 W/m² | - |
| 1777384502 | 20° C | 98% | 1053.2 hPa | 0 mm | - | 218 W/m² | - |
| 1777384196 | 19.44° C | 98% | 1053.3 hPa | 0 mm | - | 160 W/m² | - |
| 1777383893 | 19.44° C | 98% | 1053.2 hPa | 0 mm | - | 105 W/m² | - |
| 1777383589 | 19.44° C | 98% | 1053.3 hPa | 0 mm | - | 101 W/m² | - |
| 1777383285 | 19.44° C | 98% | 1052.9 hPa | 0 mm | - | 113 W/m² | - |
| 1777382982 | 20° C | 98% | 1052.5 hPa | 0 mm | - | 130 W/m² | - |
| 1777382678 | 20° C | 98% | 1053 hPa | 0 mm | - | 163 W/m² | - |
| 1777382374 | 20° C | 98% | 1053.2 hPa | 0 mm | - | 151 W/m² | - |
| 1777382070 | 19.44° C | 98% | 1053.1 hPa | 0 mm | - | 215 W/m² | - |
| 1777381767 | 19.44° C | 97% | 1053 hPa | 0 mm | - | 122 W/m² | - |
| 1777381461 | 19.44° C | 97% | 1053.1 hPa | 0 mm | - | 71 W/m² | - |
| 1777381158 | 19.44° C | 97% | 1052.5 hPa | 0 mm | - | 97 W/m² | - |
* Rain latest hour (hover to see other rain measurements)
** Current wind speed in m/s (hover to see current wind gust speed)